Las Cruces, NM

7:26 AM MDT on April 26, 2017 (GMT -0600)
Las Cruces International

Weather History for KLRU - November, 2014

Change the Weather History Date:

Sunday, November 30, 2014

  Actual Average Record
Temperature  
Mean Temperature 54 °F -  
Max Temperature 69 °F 55 °F 71 °F (2003)
Min Temperature 40 °F 33 °F 15 °F (2010)
Degree Days  
Heating Degree Days 10    
Growing Degree Days 4 (Base 50)    
Moisture  
Dew Point 17 °F    
Average Humidity 26    
Maximum Humidity 40    
Minimum Humidity 12    
Precipitation  
Precipitation 0.00 in - - ()
Sea Level Pressure  
Sea Level Pressure 30.11 in    
Wind  
Wind Speed 8 mph (West)    
Max Wind Speed 17 mph    
Max Gust Speed 25 mph    
Visibility 10 miles    
Events      
Averages and records for this station are not official NWS values.
T = Trace of Precipitation, MM = Missing Value Source: NWS Daily Summary

Daily Weather History Graph

Daily Weather History Graph

Search for Another Location

Airport or City:

Trip Planner

Search our weather history database for the weather conditions in past years. The results will help you decide how hot, cold, wet, or windy it might be!

Date:

Astronomy

Nov. 30, 2014 Rise Set
Actual Time 6:50 AM MST 5:02 PM MST
Civil Twilight 6:23 AM MST 5:29 PM MST
Nautical Twilight 5:53 AM MST 5:59 PM MST
Astronomical Twilight 5:23 AM MST 6:29 PM MST
Moon 1:15 PM MST (11/30) 12:44 AM MST (11/30)
Length of Visible Light 11h 05m
Length of Day
10h 12m
Waxing Gibbous, 65% of the Moon is Illuminated
Nov 30
Waxing Gibbous
Dec 6
Full
Dec 14
Last Quarter
Dec 21
New
Dec 28
First Quarter

Hourly Weather History & Observations

Time (MST) Temp. Windchill Dew Point Humidity Pressure Visibility Wind Dir Wind Speed Gust Speed Precip Events Conditions
12:15 AM 45.9 °F 41.7 °F 17.6 °F 32% 30.04 in 10.0 mi West 8.1 mph - N/A   Clear
12:35 AM 45.0 °F 39.3 °F 17.6 °F 33% 30.04 in 10.0 mi WSW 11.5 mph - N/A   Clear
12:55 AM 44.8 °F 39.0 °F 17.4 °F 33% 30.04 in 10.0 mi West 11.5 mph - N/A   Clear
1:15 AM 45.3 °F 39.7 °F 18.0 °F 34% 30.04 in 10.0 mi West 11.5 mph - N/A   Clear
1:35 AM 46.0 °F 42.5 °F 18.0 °F 33% 30.05 in 10.0 mi West 6.9 mph - N/A   Clear
1:55 AM 44.8 °F 40.4 °F 17.6 °F 34% 30.05 in 10.0 mi West 8.1 mph - N/A   Clear
2:15 AM 44.1 °F 38.6 °F 17.8 °F 35% 30.05 in 10.0 mi WNW 10.4 mph - N/A   Clear
2:35 AM 45.5 °F 41.8 °F 17.8 °F 33% 30.05 in 10.0 mi West 6.9 mph - N/A   Clear
2:55 AM 45.1 °F 42.8 °F 18.0 °F 34% 30.05 in 10.0 mi West 4.6 mph - N/A   Clear
3:15 AM 43.0 °F 40.3 °F 17.4 °F 36% 30.05 in 10.0 mi WSW 4.6 mph - N/A   Clear
3:35 AM 41.7 °F 38.8 °F 17.2 °F 37% 30.05 in 10.0 mi West 4.6 mph - N/A   Clear
3:55 AM 40.3 °F 34.9 °F 17.4 °F 40% 30.05 in 10.0 mi WSW 8.1 mph - N/A   Clear
4:15 AM 42.1 °F 38.4 °F 16.9 °F 36% 30.05 in 10.0 mi SW 5.8 mph - N/A   Clear
4:35 AM 41.7 °F 39.8 °F 17.2 °F 37% 30.06 in 10.0 mi West 3.5 mph - N/A   Clear
4:55 AM 41.5 °F 38.6 °F 17.1 °F 37% 30.06 in 10.0 mi WSW 4.6 mph - N/A   Clear
5:15 AM 43.2 °F 37.9 °F 17.2 °F 35% 30.07 in 10.0 mi West 9.2 mph - N/A   Clear
5:35 AM 44.8 °F 39.4 °F 17.6 °F 34% 30.08 in 10.0 mi West 10.4 mph - N/A   Clear
5:55 AM 42.3 °F 38.6 °F 17.1 °F 36% 30.08 in 10.0 mi West 5.8 mph - N/A   Clear
6:15 AM 42.4 °F 38.8 °F 17.1 °F 36% 30.09 in 10.0 mi WSW 5.8 mph - N/A   Clear
6:35 AM 41.2 °F 36.0 °F 17.6 °F 39% 30.10 in 10.0 mi West 8.1 mph - N/A   Clear
6:55 AM 42.6 °F 39.0 °F 17.6 °F 37% 30.10 in 10.0 mi WNW 5.8 mph - N/A   Clear
7:15 AM 44.2 °F 41.0 °F 18.3 °F 35% 30.11 in 10.0 mi West 5.8 mph - N/A   Clear
7:35 AM 45.7 °F 44.4 °F 18.5 °F 34% 30.12 in 10.0 mi West 3.5 mph - N/A   Clear
7:55 AM 48.2 °F - 18.7 °F 31% 30.12 in 10.0 mi Calm Calm - N/A   Clear
8:15 AM 50.2 °F - 18.9 °F 29% 30.13 in 10.0 mi Calm Calm - N/A   Clear
8:35 AM 52.7 °F - 18.9 °F 26% 30.13 in 10.0 mi Calm Calm - N/A   Clear
8:55 AM 54.9 °F - 19.4 °F 25% 30.15 in 10.0 mi West 3.5 mph - N/A   Clear
9:15 AM 57.0 °F - 19.0 °F 23% 30.15 in 10.0 mi WSW 9.2 mph - N/A   Clear
9:35 AM 59.0 °F - 18.7 °F 21% 30.16 in 10.0 mi WSW 9.2 mph - N/A   Clear
9:55 AM 61.3 °F - 18.5 °F 19% 30.16 in 10.0 mi West 12.7 mph 16.1 mph N/A   Clear
10:15 AM 61.9 °F - 18.9 °F 19% 30.16 in 10.0 mi WSW 10.4 mph - N/A   Clear
10:35 AM 63.3 °F - 19.4 °F 18% 30.16 in 10.0 mi WSW 15.0 mph - N/A   Clear
10:55 AM 64.0 °F - 20.1 °F 19% 30.15 in 10.0 mi WSW 13.8 mph 19.6 mph N/A   Clear
11:15 AM 65.1 °F - 20.1 °F 18% 30.14 in 10.0 mi WSW 12.7 mph - N/A   Clear
11:35 AM 65.7 °F - 19.6 °F 17% 30.13 in 10.0 mi WSW 12.7 mph - N/A   Clear
11:55 AM 67.1 °F - 18.5 °F 16% 30.12 in 10.0 mi WSW 17.3 mph 20.7 mph N/A   Clear
12:15 PM 67.3 °F - 18.3 °F 15% 30.11 in 10.0 mi WSW 11.5 mph 20.7 mph N/A   Clear
12:35 PM 68.7 °F - 17.6 °F 14% 30.09 in 10.0 mi WSW 13.8 mph - N/A   Clear
12:55 PM 68.9 °F - 16.7 °F 14% 30.08 in 10.0 mi WSW 10.4 mph 25.3 mph N/A   Clear
1:15 PM 68.9 °F - 14.7 °F 12% 30.08 in 10.0 mi West 13.8 mph - N/A   Clear
1:35 PM 69.3 °F - 15.6 °F 13% 30.07 in 10.0 mi SW 13.8 mph - N/A   Clear
1:55 PM 68.9 °F - 15.6 °F 13% 30.07 in 10.0 mi WSW 15.0 mph 18.4 mph N/A   Clear
2:15 PM 68.5 °F - 15.8 °F 13% 30.07 in 10.0 mi WSW 11.5 mph - N/A   Clear
2:35 PM 68.0 °F - 14.2 °F 13% 30.07 in 10.0 mi West 13.8 mph 19.6 mph N/A   Clear
2:55 PM 68.2 °F - 14.5 °F 13% 30.07 in 10.0 mi WSW 12.7 mph - N/A   Clear
3:15 PM 67.3 °F - 14.9 °F 13% 30.08 in 10.0 mi WSW 13.8 mph 18.4 mph N/A   Clear
3:35 PM 67.5 °F - 15.3 °F 13% 30.08 in 10.0 mi WSW 12.7 mph 17.3 mph N/A   Clear
3:55 PM 67.5 °F - 14.9 °F 13% 30.09 in 10.0 mi West 9.2 mph 16.1 mph N/A   Clear
4:15 PM 65.7 °F - 13.1 °F 13% 30.09 in 10.0 mi WSW 8.1 mph - N/A   Clear
4:35 PM 64.6 °F - 14.0 °F 14% 30.09 in 10.0 mi WSW 5.8 mph - N/A   Clear
4:55 PM 62.4 °F - 14.5 °F 16% 30.09 in 10.0 mi SW 5.8 mph - N/A   Clear
5:15 PM 58.6 °F - 15.3 °F 18% 30.10 in 10.0 mi WSW 8.1 mph - N/A   Clear
5:35 PM 58.8 °F - 15.1 °F 18% 30.11 in 10.0 mi SW 6.9 mph - N/A   Clear
5:55 PM 56.7 °F - 15.4 °F 20% 30.12 in 10.0 mi SW 5.8 mph - N/A   Clear
6:15 PM 55.6 °F - 15.1 °F 20% 30.12 in 10.0 mi SW 6.9 mph - N/A   Clear
6:35 PM 55.2 °F - 14.9 °F 20% 30.12 in 10.0 mi SW 5.8 mph - N/A   Clear
6:55 PM 55.0 °F - 14.9 °F 21% 30.12 in 10.0 mi SW 6.9 mph - N/A   Clear
7:15 PM 52.7 °F - 14.9 °F 22% 30.13 in 10.0 mi West 5.8 mph - N/A   Clear
7:35 PM 50.0 °F - 14.5 °F 24% 30.14 in 10.0 mi West 8.1 mph - N/A   Clear
7:55 PM 48.2 °F - 14.4 °F 26% 30.15 in 10.0 mi WNW 5.8 mph - N/A   Clear
8:15 PM 46.6 °F - 14.0 °F 27% 30.15 in 10.0 mi NW 5.8 mph - N/A   Clear
8:35 PM 46.2 °F 42.7 °F 14.4 °F 28% 30.16 in 10.0 mi NNW 6.9 mph - N/A   Clear
8:55 PM 47.5 °F - 14.9 °F 27% 30.16 in 10.0 mi West 5.8 mph - N/A   Clear
9:15 PM 46.2 °F 42.7 °F 14.9 °F 28% 30.16 in 10.0 mi West 6.9 mph - N/A   Clear
9:35 PM 42.8 °F 38.6 °F 13.8 °F 31% 30.16 in 10.0 mi West 6.9 mph - N/A   Clear
9:55 PM 41.0 °F 36.4 °F 13.5 °F 33% 30.16 in 10.0 mi West 6.9 mph - N/A   Clear
10:15 PM 42.1 °F 36.1 °F 14.4 °F 33% 30.16 in 10.0 mi WSW 10.4 mph - N/A   Clear
10:35 PM 45.1 °F 42.0 °F 14.7 °F 29% 30.17 in 10.0 mi West 5.8 mph - N/A   Clear
10:55 PM 43.7 °F 41.1 °F 14.9 °F 31% 30.17 in 10.0 mi WNW 4.6 mph - N/A   Clear
11:15 PM 44.8 °F 41.6 °F 14.9 °F 30% 30.18 in 10.0 mi WNW 5.8 mph - N/A   Clear
11:35 PM 42.1 °F 39.2 °F 14.9 °F 33% 30.18 in 10.0 mi WNW 4.6 mph - N/A   Clear
11:55 PM 45.7 °F 41.5 °F 15.6 °F 30% 30.18 in 10.0 mi WNW 8.1 mph - N/A   Clear